Вернуться в каталог

ONEWEB-0033

АктивенСвязьPO
NORAD 45142·PAYLOAD·🇬🇧 United Kingdom

Запущен Feb 6, 2020 с Baikonur Cosmodrome

Loading…

Ближайшие Пролёты (ближайшие 24 часа)

TLE

СвежийSource: CelesTrak SupGP

Эпоха: Sep 14, 2026, 17:16 UTC

1 45142C 20008M   26257.71995787  .00003079  00000+0  88296-2 0  2571
2 45142  87.8914  18.4471 0001400  85.7729  26.9883 13.10375073    10

Отслеживайте ONEWEB-0033 в реальном времени с AllMySat

Download on the App Store